TimeCDT,TemperatureF,Dew PointF,Humidity,Sea Level PressureIn,VisibilityMPH,Wind Direction,Wind SpeedMPH,Gust SpeedMPH,PrecipitationIn,Events,Conditions,WindDirDegrees,DateUTC
12:54 AM,73.0,63.0,71,29.91,10.0,South,6.9,-,N/A,,Partly Cloudy,190,2013-07-21 05:54:00
1:54 AM,73.9,63.0,68,29.89,10.0,SSE,4.6,-,N/A,,Scattered Clouds,150,2013-07-21 06:54:00
2:54 AM,75.0,62.1,64,29.87,10.0,SSE,4.6,-,N/A,,Mostly Cloudy,160,2013-07-21 07:54:00
3:54 AM,71.1,62.1,73,29.85,10.0,SSE,4.6,-,N/A,,Mostly Cloudy,160,2013-07-21 08:54:00
4:54 AM,71.1,62.1,73,29.85,10.0,Calm,Calm,-,N/A,,Scattered Clouds,0,2013-07-21 09:54:00
5:54 AM,70.0,62.1,76,29.86,10.0,South,4.6,-,N/A,,Scattered Clouds,190,2013-07-21 10:54:00
6:54 AM,70.0,63.0,78,29.86,10.0,Calm,Calm,-,N/A,,Mostly Cloudy,0,2013-07-21 11:54:00
7:54 AM,73.9,64.0,71,29.84,10.0,Calm,Calm,-,N/A,,Scattered Clouds,0,2013-07-21 12:54:00
8:54 AM,77.0,64.0,64,29.86,10.0,SE,4.6,-,N/A,,Scattered Clouds,140,2013-07-21 13:54:00
9:54 AM,78.1,64.9,64,29.87,10.0,ESE,6.9,-,N/A,,Overcast,110,2013-07-21 14:54:00
10:25 AM,75.9,68.0,76,29.90,8.0,SSE,5.8,-,0.02,Rain-Thunderstorm,Light Thunderstorms and Rain,150,2013-07-21 15:25:00
10:50 AM,75.2,68.0,78,29.90,10.0,NE,9.2,-,0.02,,Overcast,40,2013-07-21 15:50:00
10:54 AM,75.9,68.0,76,29.88,10.0,NNE,8.1,-,0.02,,Overcast,20,2013-07-21 15:54:00
11:30 AM,73.9,68.0,82,29.91,3.0,ENE,5.8,-,0.10,Rain-Thunderstorm,Thunderstorms and Rain,60,2013-07-21 16:30:00
11:54 AM,73.0,68.0,84,29.88,4.0,SSE,8.1,-,0.15,Rain-Thunderstorm,Light Thunderstorms and Rain,160,2013-07-21 16:54:00
12:28 PM,73.9,66.9,79,29.90,10.0,East,8.1,-,0.01,,Overcast,100,2013-07-21 17:28:00
12:54 PM,73.0,66.0,79,29.88,10.0,ESE,9.2,-,0.01,Rain,Light Rain,120,2013-07-21 17:54:00
1:54 PM,72.0,66.0,81,29.87,10.0,South,5.8,-,0.00,,Overcast,180,2013-07-21 18:54:00
2:54 PM,73.0,66.9,81,29.87,10.0,South,6.9,-,N/A,,Mostly Cloudy,180,2013-07-21 19:54:00
3:54 PM,78.1,66.9,68,29.82,10.0,SSE,15.0,-,N/A,,Scattered Clouds,150,2013-07-21 20:54:00
4:54 PM,79.0,66.0,64,29.81,10.0,SSE,12.7,-,N/A,,Scattered Clouds,150,2013-07-21 21:54:00
5:54 PM,79.0,64.9,62,29.79,10.0,South,13.8,-,N/A,,Scattered Clouds,180,2013-07-21 22:54:00
6:54 PM,77.0,64.9,66,29.81,10.0,South,5.8,-,N/A,,Scattered Clouds,190,2013-07-21 23:54:00
7:54 PM,75.9,66.9,74,29.80,10.0,South,5.8,-,N/A,,Mostly Cloudy,170,2013-07-22 00:54:00
8:54 PM,73.9,66.9,79,29.81,10.0,South,6.9,-,N/A,,Scattered Clouds,180,2013-07-22 01:54:00
9:54 PM,73.0,66.0,79,29.83,10.0,SSE,4.6,-,N/A,,Scattered Clouds,160,2013-07-22 02:54:00
10:54 PM,73.0,66.0,79,29.84,10.0,SSE,4.6,-,N/A,,Scattered Clouds,160,2013-07-22 03:54:00
11:54 PM,72.0,66.0,81,29.84,10.0,SE,5.8,-,N/A,,Scattered Clouds,140,2013-07-22 04:54:00